EDT,Max TemperatureF,Mean TemperatureF,Min TemperatureF,Max Dew PointF,MeanDew PointF,Min DewpointF,Max Humidity, Mean Humidity, Min Humidity, Max Sea Level PressureIn, Mean Sea Level PressureIn, Min Sea Level PressureIn, Max VisibilityMiles, Mean VisibilityMiles, Min VisibilityMiles, Max Wind SpeedMPH, Mean Wind SpeedMPH, Max Gust SpeedMPH,PrecipitationIn, CloudCover, Events, WindDirDegrees
2013-5-1,74,61,48,57,54,48,99,76,48,30.22,30.17,30.14,10,9,3,12,2,16,0.00,2,,239
2013-5-2,70,60,49,56,52,48,98,76,51,30.22,30.19,30.14,10,10,10,10,3,,0.00,5,,93
2013-5-3,69,62,54,52,50,47,90,67,45,30.18,30.08,30.01,10,10,10,17,6,26,0.00,7,,78
2013-5-4,59,55,51,52,47,36,99,76,50,30.01,29.93,29.87,10,9,2,18,9,29,0.06,8,Rain,73
2013-5-5,62,56,48,54,51,47,99,88,70,29.88,29.81,29.76,10,9,4,14,6,24,0.19,8,Rain,258
2013-5-6,53,48,44,48,45,43,98,87,70,29.93,29.85,29.77,10,10,5,13,4,,0.00,8,Rain,269
2013-5-7,67,53,39,50,44,39,100,74,39,29.99,29.93,29.89,10,9,0,14,2,23,0.00,5,Fog,9
2013-5-8,67,57,47,59,53,46,99,88,61,30.10,30.03,29.97,10,9,2,12,1,20,0.05,7,Rain,257
2013-5-9,77,62,48,60,54,48,100,73,42,30.15,30.11,30.06,10,8,0,13,2,,0.00,4,Fog,247
2013-5-10,73,60,46,60,55,47,100,81,57,30.15,30.07,29.99,10,8,0,16,2,24,0.00,4,Fog-Rain,257
2013-5-11,71,63,54,62,58,53,100,91,69,30.03,29.97,29.91,10,8,3,10,1,,0.00,7,Rain,245
2013-5-12,62,50,38,53,41,29,100,69,30,30.14,30.04,29.99,10,8,0,16,3,21,0.00,3,Fog,33
2013-5-13,63,47,31,38,33,26,99,64,25,30.22,30.17,30.13,10,10,10,15,2,26,0.00,0,,353
2013-5-14,77,56,34,52,43,33,97,68,36,30.27,30.20,30.11,10,10,2,14,2,18,0.00,0,,244
2013-5-15,86,66,45,56,51,46,100,67,25,30.21,30.13,30.05,10,8,0,14,2,22,0.00,0,Fog,247
2013-5-16,81,65,49,58,54,49,98,75,41,30.12,30.08,30.01,10,10,5,12,1,16,0.00,1,,233
2013-5-17,80,68,55,59,56,50,97,71,44,30.15,30.10,30.06,10,9,4,9,2,,0.00,5,,227
2013-5-18,68,64,59,65,62,57,99,93,82,30.13,30.10,30.07,10,8,2,4,0,,0.06,8,Rain,338
2013-5-19,70,64,57,66,63,57,100,95,80,30.13,30.09,30.03,10,8,1,10,1,,0.52,7,Rain,263
2013-5-20,83,68,53,66,61,53,100,80,47,30.15,30.10,30.04,10,8,0,10,2,,0.00,3,Fog,247
2013-5-21,87,73,59,68,63,58,100,79,41,30.11,30.05,29.96,10,7,0,14,2,20,0.14,5,Fog-Rain,248
2013-5-22,82,70,59,68,63,59,99,85,52,30.06,29.98,29.89,10,9,3,14,2,38,0.05,6,Rain,344
2013-5-23,79,70,60,63,59,53,100,74,48,30.03,29.98,29.95,10,9,0,16,4,22,0.02,7,Fog-Rain,270
2013-5-24,69,58,46,54,45,36,88,61,32,30.28,30.15,30.03,10,10,10,14,4,26,0.00,,,4
2013-5-25,77,57,37,46,40,30,98,62,22,30.34,30.28,30.22,10,10,10,12,2,20,0.00,,,299
2013-5-26,77,60,44,51,46,42,95,68,30,30.32,30.26,30.20,10,10,10,8,1,,0.00,,Rain,210
2013-5-27,81,64,46,57,52,46,97,68,39,30.28,30.22,30.16,10,10,7,10,1,17,0.00,,,232
2013-5-28,84,70,56,60,57,48,96,68,28,30.25,30.20,30.16,10,10,7,13,2,20,0.00,4,,211
2013-5-29,85,70,56,61,58,55,98,69,37,30.26,30.21,30.16,10,10,5,10,2,16,0.00,2,,226
2013-5-30,82,70,57,62,59,56,97,72,43,30.30,30.23,30.18,10,10,7,12,2,17,0.00,3,,222
2013-5-31,81,70,60,61,60,58,94,67,46,30.25,30.18,30.13,10,10,7,14,3,22,0.00,5,,198